[[[{"header":{"parameterUnit":"kt","parameterCategory":2,"dx":1,"dy":1,"la1":30.253999710083008,"la2":30.299108505249023,"lo1":-89.0895004272461,"lo2":-89.04439544677734,"nx":28,"ny":28,"refTime":"2022-10-05T21:00:00:Z","depth":"0","parameterNumber":2,"parameterNumberName":"U-component_of_CURRENTS"},"data":[-0.0006,0.0081,0.0159,0.0301,0.0356,0.041,0.044,0.0503,0.0521,0.0561,0.0552,0.047,0.0307,0.0315,0.0198,0.0208,0.0285,0.0591,0.0417,0.0295,0.0256,0.0218,0.0342,0.0617,0.062,0.0598,0.0603,0.0606,-0.001,0.0071,0.0156,0.0225,0.0278,0.0268,0.0293,0.0334,0.0332,0.0289,0.0211,0.0116,-0.0054,-0.0273,-0.0487,-0.0381,-0.0485,-0.0237,-0.006,-0.0234,-0.0648,-0.0558,-0.0471,-0.0471,-0.0471,-0.0471,-0.0472,-0.0472,-0.002,0.0024,0.0073,0.0142,0.0161,0.019,0.0227,0.0196,0.0173,0.0115,-0.0036,-0.01,-0.0309,-0.0605,-0.0756,-0.0868,-0.0851,-0.0858,-0.0586,-0.0543,-0.0575,-0.1017,-0.1063,-0.1064,-0.1066,-0.1067,-0.1068,0,-0.0064,-0.0041,-0.0017,0.0037,0.0061,0.0071,0.0064,0.0062,-0.0032,-0.0088,-0.0187,-0.0277,-0.0508,-0.0638,-0.0867,-0.1001,-0.0977,-0.1146,-0.101,-0.0527,-0.0409,-0.0535,-0.0993,-0.1046,-0.1048,-0.1049,-0.1049,-0.105,-0.0127,-0.0098,-0.0087,-0.0067,-0.0069,-0.0057,-0.0056,-0.0126,-0.0149,-0.0279,-0.0296,-0.0434,-0.0534,-0.0788,-0.0944,-0.1124,-0.1023,-0.1169,-0.1131,-0.0983,-0.0723,-0.0641,-0.0748,-0.1064,-0.1062,-0.106,-0.1059,0,-0.0161,-0.0189,-0.0157,-0.0182,-0.0185,-0.0159,-0.0192,-0.02,-0.0278,-0.0327,-0.0349,-0.0515,-0.0639,-0.0787,-0.0947,-0.105,-0.1072,-0.1197,-0.108,-0.1078,-0.0995,-0.075,-0.0646,-0.0765,-0.1306,-0.1306,-0.1306,0,-0.0265,-0.0237,-0.0277,-0.0262,-0.0233,-0.0283,-0.0273,-0.0323,-0.0397,-0.0425,-0.0542,-0.0591,-0.0739,-0.0839,-0.0932,-0.1051,-0.1067,-0.1114,-0.113,-0.1027,-0.1016,-0.0911,-0.0666,-0.1141,-0.1139,-0.1138,-0.1137,0,-0.0353,-0.0348,-0.0325,-0.0332,-0.0378,-0.0366,-0.0394,-0.047,-0.0493,-0.0581,-0.0611,-0.07,-0.073,-0.0827,-0.0916,-0.091,-0.105,-0.105,-0.1095,-0.1095,-0.1032,-0.1023,-0.0932,-0.1136,-0.1135,-0.1135,-0.1135,0,-0.0446,-0.0446,-0.0419,-0.0433,-0.0433,-0.0441,-0.0486,-0.0516,-0.0604,-0.064,-0.0689,-0.0731,-0.0778,-0.0787,-0.0895,-0.0855,-0.0907,-0.0949,-0.0956,-0.0944,-0.0938,-0.0977,-0.0985,-0.0841,-0.103,-0.1029,-0.1027,0,-0.0527,-0.0502,-0.0528,-0.0512,-0.0507,-0.0572,-0.0596,-0.0643,-0.0698,-0.074,-0.0771,-0.0771,-0.0783,-0.0766,-0.0807,-0.0834,-0.0881,-0.0818,-0.0937,-0.0941,-0.094,-0.0956,-0.0848,-0.0966,-0.1009,-0.1011,-0.1013,0,-0.0583,-0.0609,-0.0597,-0.0588,-0.0638,-0.0651,-0.0686,-0.0722,-0.0735,-0.0785,-0.0796,-0.0775,-0.0794,-0.0779,-0.0768,-0.0799,-0.0856,-0.0804,-0.0806,-0.0887,-0.0958,-0.0935,-0.0946,-0.0848,-0.0849,-0.085,-0.0998,0,-0.0627,-0.0635,-0.0634,-0.0645,-0.0672,-0.0681,-0.0733,-0.0765,-0.0793,-0.0822,-0.082,-0.0824,-0.0811,-0.0795,-0.0781,-0.0781,-0.0801,-0.0789,-0.0816,-0.0806,-0.0871,-0.0882,-0.0753,-0.0753,-0.0754,-0.0754,0,0,-0.0655,-0.066,-0.0706,-0.0696,-0.0706,-0.0772,-0.0764,-0.0802,-0.084,-0.0843,-0.0853,-0.0836,-0.0827,-0.0799,-0.0779,-0.0773,-0.0806,-0.0781,-0.0794,-0.0798,-0.0802,-0.0864,-0.0875,-0.0754,-0.0754,-0.0754,-0.0754,0,-0.0653,-0.0703,-0.0698,-0.072,-0.0746,-0.0778,-0.0786,-0.0825,-0.0838,-0.0855,-0.0842,-0.0834,-0.0829,-0.0814,-0.08,-0.0777,-0.0811,-0.0753,-0.0759,-0.0794,-0.0798,-0.0802,-0.0863,-0.0872,-0.0754,-0.0754,-0.0754,0,-0.0662,-0.0682,-0.0701,-0.0749,-0.0768,-0.0783,-0.0805,-0.0829,-0.084,-0.085,-0.0863,-0.0852,-0.0833,-0.0819,-0.0813,-0.0821,-0.0832,-0.0801,-0.0799,-0.0813,-0.0851,-0.0854,-0.0858,-0.0825,-0.0825,-0.0826,0,0,-0.0651,-0.0673,-0.0719,-0.0752,-0.0763,-0.0796,-0.0815,-0.0829,-0.0846,-0.0851,-0.0865,-0.0856,-0.0838,-0.0838,-0.083,-0.083,-0.0865,-0.0811,-0.0808,-0.0805,-0.0817,-0.0854,-0.0856,-0.0827,-0.0827,-0.0827,0,0,-0.0646,-0.069,-0.0705,-0.0747,-0.0779,-0.0816,-0.0827,-0.0845,-0.0857,-0.0848,-0.0857,-0.0858,-0.0847,-0.0849,-0.0867,-0.0828,-0.0839,-0.0836,-0.0839,-0.0835,-0.0831,-0.0848,-0.087,0,0,0,0,0,-0.066,-0.0684,-0.0698,-0.0711,-0.0775,-0.0813,-0.0821,-0.0841,-0.084,-0.0852,-0.0851,-0.0855,-0.0846,-0.0863,-0.0867,-0.085,-0.0846,-0.0842,-0.0839,-0.0842,-0.0837,-0.0833,0,0,0,0,0,0,-0.0665,-0.0679,-0.0698,-0.0737,-0.0752,-0.0813,-0.081,-0.0816,-0.0839,-0.084,-0.0855,-0.0856,-0.0857,-0.0862,-0.0865,-0.0849,-0.0869,-0.0844,-0.0842,-0.0839,-0.084,-0.0836,-0.0833,0,0,0,0,0,-0.0669,-0.0681,-0.0781,-0.0736,-0.0749,-0.0783,-0.0809,-0.0814,-0.0831,-0.0844,-0.0846,-0.0845,-0.0857,-0.086,-0.0864,-0.0847,-0.0867,-0.0868,-0.0843,-0.084,-0.0838,-0.0838,0,0,0,0,0,0,-0.0672,-0.0682,-0.0784,-0.0788,-0.0728,-0.078,-0.0789,-0.0813,-0.0834,-0.0837,-0.0833,-0.0833,-0.0858,-0.086,-0.0861,-0.0845,-0.0865,-0.0866,-0.0867,-0.0841,-0.0839,-0.0838,0,0,0,0,0,0,-0.0676,-0.0685,-0.0786,-0.0775,-0.0778,-0.0776,-0.0785,-0.0798,-0.0833,-0.0821,-0.0823,-0.0833,-0.0846,-0.086,-0.0861,-0.0882,-0.0864,-0.0865,-0.0866,-0.0866,-0.0839,-0.0838,0,0,0,0,0,0,-0.068,-0.0688,-0.0774,-0.0776,-0.0779,-0.0829,-0.0787,-0.0846,-0.0845,-0.0819,-0.0844,-0.0843,-0.0845,-0.0847,-0.0861,-0.0881,-0.0882,-0.0864,-0.0865,-0.0865,-0.0866,0,0,0,0,0,0,0,-0.0684,-0.0624,-0.0759,-0.0777,-0.078,-0.0829,-0.083,-0.0832,-0.0845,-0.0844,-0.0844,-0.0843,-0.0858,-0.0859,-0.086,-0.0881,0,0,-0.0864,-0.0864,0,0,0,0,0,0,0,0,-0.062,-0.0623,-0.0759,-0.076,-0.0761,-0.083,-0.083,-0.0831,-0.0845,-0.0844,-0.0844,-0.0843,-0.0858,-0.0859,-0.086,0,0,0,0,0,0,0,0,0,0,0,0,0,0,0,-0.0759,-0.076,0,-0.083,-0.083,-0.0831,-0.0845,-0.0845,-0.0844,-0.0844,-0.0858,-0.0859,-0.086,0,0,0,0,0,0,0,0,0,0,0,0,0,0,0,0,0,0,0,0,0,0,0,0,0,0,0,0,0,0,0,0,0,0,0,0,0,0,0,0,0,0,0,0,0,0,0,0,0,0,0,0,0,0,0,0,0,0,0,0,0,0,0,0,0,0,0,0,0]}],[{"header":{"parameterUnit":"kt","parameterCategory":2,"dx":1,"dy":1,"la1":30.253999710083008,"la2":30.299108505249023,"lo1":-89.0895004272461,"lo2":-89.04439544677734,"nx":28,"ny":28,"refTime":"2022-10-05T21:00:00:Z","depth":"0","parameterNumber":3,"parameterNumberName":"V-component_of_CURRENTS"},"data":[-0.1847,-0.1885,-0.1954,-0.2025,-0.2114,-0.2185,-0.2266,-0.2408,-0.2571,-0.2822,-0.3032,-0.3239,-0.3443,-0.3665,-0.3655,-0.3569,-0.2666,-0.2764,-0.21,-0.2949,-0.2948,-0.2947,-0.2935,-0.2922,-0.2919,-0.1095,-0.1079,-0.1067,-0.1912,-0.1972,-0.2044,-0.2187,-0.2253,-0.2355,-0.2518,-0.2596,-0.2752,-0.2947,-0.3097,-0.3468,-0.3757,-0.3961,-0.4233,-0.3966,-0.3566,-0.366,-0.3224,-0.2836,-0.3938,-0.3984,-0.4195,-0.4195,-0.4195,-0.4195,-0.4195,-0.4196,-0.2044,-0.2069,-0.2205,-0.2305,-0.2405,-0.2515,-0.2574,-0.275,-0.2882,-0.3035,-0.3189,-0.3332,-0.3724,-0.4033,-0.4037,-0.4092,-0.367,-0.3959,-0.36,-0.3319,-0.2934,-0.4135,-0.4304,-0.4302,-0.43,-0.4299,-0.4298,0,-0.2177,-0.2253,-0.2339,-0.2462,-0.2551,-0.2655,-0.2782,-0.2848,-0.3022,-0.3111,-0.3249,-0.3336,-0.3589,-0.3784,-0.3913,-0.3918,-0.3378,-0.3804,-0.3542,-0.3356,-0.3098,-0.2688,-0.3734,-0.3849,-0.3845,-0.3842,-0.3839,-0.3837,-0.233,-0.2368,-0.2561,-0.2613,-0.2682,-0.2781,-0.2846,-0.2991,-0.3059,-0.3199,-0.3231,-0.3329,-0.3415,-0.3505,-0.3617,-0.3661,-0.3195,-0.3694,-0.3648,-0.3477,-0.3139,-0.2846,-0.2489,-0.3788,-0.3794,-0.3799,-0.3804,0,-0.2406,-0.2532,-0.2612,-0.278,-0.2832,-0.2867,-0.3007,-0.305,-0.3134,-0.3195,-0.3209,-0.3292,-0.335,-0.3365,-0.3303,-0.3303,-0.3105,-0.3303,-0.3477,-0.35,-0.3429,-0.3131,-0.2798,-0.2384,-0.3426,-0.343,-0.3434,0,-0.255,-0.259,-0.2773,-0.2805,-0.2872,-0.2975,-0.303,-0.3082,-0.3166,-0.3212,-0.325,-0.3292,-0.3258,-0.3271,-0.3213,-0.325,-0.3163,-0.3208,-0.3208,-0.3313,-0.3338,-0.3154,-0.2862,-0.3004,-0.3004,-0.3004,-0.3004,0,-0.2606,-0.2736,-0.28,-0.2836,-0.2971,-0.3004,-0.3061,-0.3127,-0.3164,-0.3219,-0.3244,-0.327,-0.3281,-0.3216,-0.3195,-0.3152,-0.3143,-0.3076,-0.3177,-0.3189,-0.3299,-0.3324,-0.3155,-0.3004,-0.3004,-0.3004,-0.3004,0,-0.2696,-0.2773,-0.2844,-0.2965,-0.2991,-0.302,-0.3093,-0.3125,-0.3186,-0.3205,-0.324,-0.3251,-0.3266,-0.322,-0.3183,-0.3179,-0.3115,-0.308,-0.3079,-0.3234,-0.3228,-0.3393,-0.343,-0.3218,-0.3077,-0.3077,-0.3077,0,-0.2737,-0.2818,-0.2877,-0.2938,-0.2991,-0.3049,-0.3076,-0.3119,-0.3146,-0.3184,-0.3204,-0.3221,-0.3208,-0.3212,-0.3183,-0.3153,-0.3121,-0.3133,-0.3063,-0.3063,-0.324,-0.3244,-0.3382,-0.3422,-0.3081,-0.3081,-0.308,0,-0.2755,-0.2888,-0.2891,-0.294,-0.3007,-0.3041,-0.3066,-0.3118,-0.3143,-0.3156,-0.319,-0.3186,-0.32,-0.32,-0.3198,-0.3166,-0.3133,-0.3119,-0.3117,-0.3156,-0.306,-0.3229,-0.3243,-0.3069,-0.3068,-0.3068,-0.3084,0,-0.2862,-0.2902,-0.2918,-0.2971,-0.3007,-0.3036,-0.3086,-0.3105,-0.3117,-0.3141,-0.3157,-0.3172,-0.3188,-0.3167,-0.3169,-0.3145,-0.3135,-0.3105,-0.3129,-0.3095,-0.3106,-0.3103,-0.313,-0.313,-0.313,-0.313,0,0,-0.2867,-0.2903,-0.2945,-0.298,-0.3014,-0.3058,-0.3087,-0.3106,-0.3147,-0.3164,-0.3154,-0.3172,-0.3177,-0.3196,-0.3175,-0.3166,-0.3142,-0.3173,-0.3103,-0.31,-0.3097,-0.3107,-0.3104,-0.3129,-0.3129,-0.3129,-0.3129,0,-0.2896,-0.2925,-0.2936,-0.2974,-0.3035,-0.3068,-0.3075,-0.3129,-0.3139,-0.3157,-0.3166,-0.3178,-0.3175,-0.319,-0.3192,-0.3166,-0.3157,-0.3128,-0.3143,-0.3103,-0.31,-0.3097,-0.3106,-0.3104,-0.3129,-0.3129,-0.3129,0,-0.2917,-0.2953,-0.2954,-0.3012,-0.305,-0.3086,-0.3109,-0.3142,-0.3154,-0.3183,-0.3197,-0.3201,-0.3202,-0.3202,-0.3198,-0.3206,-0.3178,-0.3185,-0.3184,-0.3203,-0.3162,-0.3158,-0.3155,-0.3205,-0.3206,-0.3206,0,0,-0.2937,-0.2945,-0.301,-0.3021,-0.3051,-0.3097,-0.312,-0.314,-0.3172,-0.3181,-0.3201,-0.3204,-0.3207,-0.3214,-0.3216,-0.3221,-0.3219,-0.3198,-0.3194,-0.3191,-0.3208,-0.3167,-0.3163,-0.3208,-0.3208,-0.3209,0,0,-0.2944,-0.2999,-0.3014,-0.3037,-0.3078,-0.3134,-0.3153,-0.3168,-0.3189,-0.3188,-0.3215,-0.3222,-0.3222,-0.3223,-0.3251,-0.3214,-0.3222,-0.3218,-0.3237,-0.3233,-0.3229,-0.3253,-0.3266,0,0,0,0,0,-0.2986,-0.2993,-0.3006,-0.3018,-0.3082,-0.3128,-0.3138,-0.3172,-0.3175,-0.318,-0.3201,-0.3211,-0.323,-0.3256,-0.3263,-0.3246,-0.3237,-0.3232,-0.3227,-0.3251,-0.3246,-0.3241,0,0,0,0,0,0,-0.2991,-0.3003,-0.3007,-0.3062,-0.3078,-0.3127,-0.3142,-0.3151,-0.3175,-0.3177,-0.3207,-0.3212,-0.3232,-0.3254,-0.326,-0.3243,-0.3265,-0.3235,-0.323,-0.3227,-0.3249,-0.3245,-0.3241,0,0,0,0,0,-0.2995,-0.3005,-0.3094,-0.3063,-0.3076,-0.313,-0.3141,-0.3149,-0.316,-0.3203,-0.3208,-0.3185,-0.3232,-0.3238,-0.3258,-0.324,-0.3261,-0.3263,-0.3232,-0.3229,-0.3226,-0.3247,0,0,0,0,0,0,-0.2998,-0.3007,-0.3098,-0.3105,-0.3059,-0.3127,-0.3137,-0.3147,-0.3184,-0.3192,-0.3182,-0.3183,-0.3232,-0.3236,-0.3241,-0.3237,-0.3258,-0.326,-0.3261,-0.3229,-0.3227,-0.3224,0,0,0,0,0,0,-0.3003,-0.3011,-0.3101,-0.3094,-0.31,-0.3125,-0.3133,-0.3155,-0.3183,-0.316,-0.3163,-0.3182,-0.3222,-0.3235,-0.3239,-0.3271,-0.3256,-0.3258,-0.3259,-0.326,-0.3227,-0.3225,0,0,0,0,0,0,-0.3007,-0.3015,-0.3092,-0.3097,-0.3102,-0.3174,-0.3144,-0.3201,-0.3197,-0.3156,-0.3196,-0.3196,-0.322,-0.3224,-0.3237,-0.3268,-0.3271,-0.3256,-0.3257,-0.3258,-0.3258,0,0,0,0,0,0,0,-0.3011,-0.2946,-0.3066,-0.3099,-0.3103,-0.3167,-0.3168,-0.3169,-0.3197,-0.3196,-0.3196,-0.3196,-0.3245,-0.3247,-0.3249,-0.3266,0,0,-0.3255,-0.3256,0,0,0,0,0,0,0,0,-0.2944,-0.2945,-0.3066,-0.3068,-0.307,-0.3167,-0.3168,-0.3169,-0.3197,-0.3196,-0.3196,-0.3196,-0.3245,-0.3247,-0.3249,0,0,0,0,0,0,0,0,0,0,0,0,0,0,0,-0.3067,-0.3068,0,-0.3167,-0.3168,-0.3169,-0.3197,-0.3196,-0.3196,-0.3196,-0.3246,-0.3247,-0.3248,0,0,0,0,0,0,0,0,0,0,0,0,0,0,0,0,0,0,0,0,0,0,0,0,0,0,0,0,0,0,0,0,0,0,0,0,0,0,0,0,0,0,0,0,0,0,0,0,0,0,0,0,0,0,0,0,0,0,0,0,0,0,0,0,0,0,0,0,0]}]],[[{"header":{"parameterUnit":"kt","parameterCategory":2,"dx":1,"dy":1,"la1":30.253999710083008,"la2":30.299108505249023,"lo1":-89.0895004272461,"lo2":-89.04439544677734,"nx":28,"ny":28,"refTime":"2022-10-05T21:00:00:Z","depth":"2","parameterNumber":2,"parameterNumberName":"U-component_of_CURRENTS"},"data":[-0.2763,-0.2639,-0.2632,-0.2495,-0.2493,-0.2382,-0.2306,-0.2119,-0.1976,-0.1616,-0.1399,-0.1203,-0.0943,-0.0651,-0.0388,-0.0234,-0.0501,-0.0191,-0.0814,-0.0917,-0.0981,-0.0988,-0.0959,0,0,0,0,0,-0.2934,-0.29,-0.2861,-0.2829,-0.2791,-0.2875,-0.2768,-0.264,-0.2384,-0.2173,-0.1867,-0.137,-0.0991,-0.0868,-0.065,-0.0548,-0.0578,-0.0535,-0.0559,-0.0622,-0.0682,-0.0626,-0.0039,-0.0039,-0.0039,-0.0038,0,0,-0.3227,-0.3169,-0.3181,-0.3127,-0.3133,-0.3087,-0.2999,-0.2927,-0.2772,-0.2488,-0.2322,-0.1939,-0.1658,-0.1342,-0.116,-0.1135,-0.129,-0.1231,-0.1258,-0.1294,-0.126,-0.1298,-0.0846,-0.085,-0.0854,-0.0857,-0.086,0,-0.3445,-0.3455,-0.3445,-0.3436,-0.3393,-0.3373,-0.3312,-0.3246,-0.3212,-0.3061,-0.2732,-0.2499,-0.2164,-0.1803,-0.1712,-0.1585,-0.1862,-0.1669,-0.2269,-0.1658,-0.1706,-0.169,-0.1744,-0.1333,-0.1341,-0.1346,-0.135,-0.1353,-0.3639,-0.3635,-0.3672,-0.3648,-0.3648,-0.3623,-0.3569,-0.3613,-0.3522,-0.3344,-0.3188,-0.3008,-0.2716,-0.2427,-0.2314,-0.216,-0.2348,-0.1843,-0.1855,-0.249,-0.2467,-0.2498,-0.2526,-0.1432,-0.1422,-0.1413,-0.1407,0,-0.3713,-0.3797,-0.3782,-0.3824,-0.3825,-0.3776,-0.3753,-0.3683,-0.3685,-0.3499,-0.3472,-0.3341,-0.3119,-0.3078,-0.2846,-0.279,-0.2599,-0.251,-0.2276,-0.2193,-0.2545,-0.2567,-0.2253,-0.2246,-0.2241,-0.2236,-0.2233,0,-0.3846,-0.3826,-0.3906,-0.3906,-0.3859,-0.3901,-0.3824,-0.3808,-0.3741,-0.3609,-0.3641,-0.3461,-0.3416,-0.3255,-0.3186,-0.2928,-0.2934,-0.2791,-0.2733,-0.2489,-0.2463,-0.2941,-0.2956,-0.2828,-0.283,-0.2831,-0.2832,0,-0.3863,-0.393,-0.3936,-0.3947,-0.3974,-0.3939,-0.3934,-0.3873,-0.3822,-0.3748,-0.3678,-0.358,-0.3481,-0.3361,-0.3255,-0.3306,-0.3002,-0.3025,-0.2831,-0.2826,-0.246,-0.2429,-0.2834,-0.2834,-0.2835,-0.2835,-0.2836,0,-0.3927,-0.3966,-0.4,-0.3995,-0.3996,-0.3997,-0.3914,-0.3913,-0.3823,-0.3787,-0.3715,-0.367,-0.3568,-0.3581,-0.3379,-0.3463,-0.3369,-0.3289,-0.3278,-0.3112,-0.3105,-0.2652,-0.248,-0.3189,-0.3192,-0.3195,-0.3197,0,-0.3917,-0.3984,-0.4,-0.4009,-0.403,-0.4012,-0.3993,-0.3962,-0.3921,-0.3844,-0.3768,-0.3711,-0.3749,-0.372,-0.3631,-0.3529,-0.3438,-0.3558,-0.3275,-0.3267,-0.3153,-0.3069,-0.275,-0.2549,-0.3235,-0.3231,-0.3228,0,-0.39,-0.3964,-0.3954,-0.3953,-0.3982,-0.3996,-0.3983,-0.3965,-0.3911,-0.39,-0.3811,-0.3794,-0.3757,-0.372,-0.3694,-0.3601,-0.3502,-0.3589,-0.358,-0.351,-0.3254,-0.314,-0.3103,-0.3448,-0.3443,-0.3439,-0.3259,0,-0.3922,-0.3926,-0.3942,-0.3966,-0.3977,-0.4,-0.4006,-0.3989,-0.3946,-0.3928,-0.3859,-0.3815,-0.3744,-0.3745,-0.3744,-0.3649,-0.3646,-0.3607,-0.3542,-0.354,-0.347,-0.3447,-0.3699,-0.3698,-0.3697,-0.3696,0,0,-0.3875,-0.3896,-0.3898,-0.3939,-0.3938,-0.3932,-0.3958,-0.3951,-0.3944,-0.3902,-0.3898,-0.3802,-0.3756,-0.3683,-0.3715,-0.3701,-0.3641,-0.3674,-0.3572,-0.3559,-0.3546,-0.3478,-0.3457,-0.3694,-0.3693,-0.3693,-0.3692,0,-0.3889,-0.3868,-0.3882,-0.391,-0.393,-0.3938,-0.394,-0.3959,-0.3923,-0.3913,-0.3853,-0.3804,-0.3762,-0.3705,-0.3672,-0.3694,-0.3597,-0.3701,-0.3702,-0.3567,-0.3556,-0.3545,-0.3476,-0.3459,-0.3689,-0.369,-0.369,0,-0.3874,-0.3884,-0.3875,-0.3916,-0.3915,-0.3951,-0.3921,-0.3933,-0.3927,-0.386,-0.3807,-0.3778,-0.3717,-0.3692,-0.3665,-0.3638,-0.3542,-0.3604,-0.361,-0.3582,-0.3439,-0.3428,-0.3418,-0.3531,-0.3531,-0.353,0,0,-0.3885,-0.3878,-0.3921,-0.3924,-0.3938,-0.3931,-0.3932,-0.392,-0.3901,-0.3875,-0.3818,-0.3751,-0.3714,-0.3671,-0.3639,-0.3607,-0.3524,-0.3588,-0.3595,-0.3601,-0.3578,-0.3437,-0.3428,-0.3529,-0.3529,-0.3529,0,0,-0.3893,-0.3913,-0.3886,-0.3907,-0.3932,-0.3955,-0.3945,-0.3924,-0.388,-0.3838,-0.3768,-0.3747,-0.3705,-0.3658,-0.3655,-0.3603,-0.357,-0.3569,-0.3629,-0.3637,-0.3644,-0.3626,-0.358,0,0,0,0,0,-0.3903,-0.392,-0.3896,-0.39,-0.3915,-0.3971,-0.3971,-0.3933,-0.3873,-0.388,-0.3813,-0.3748,-0.365,-0.3646,-0.3629,-0.3615,-0.3515,-0.3518,-0.352,-0.359,-0.36,-0.3608,0,0,0,0,0,0,-0.3905,-0.3912,-0.3896,-0.3923,-0.3926,-0.3969,-0.3907,-0.3898,-0.3872,-0.386,-0.3767,-0.3748,-0.3703,-0.3648,-0.3635,-0.3623,-0.3584,-0.3516,-0.3518,-0.352,-0.3594,-0.3602,-0.3608,0,0,0,0,0,-0.3907,-0.3912,-0.3943,-0.3922,-0.3924,-0.3892,-0.3904,-0.3895,-0.3858,-0.3801,-0.378,-0.3826,-0.3707,-0.3688,-0.364,-0.363,-0.3593,-0.3588,-0.3518,-0.3519,-0.3521,-0.3598,0,0,0,0,0,0,-0.3908,-0.3897,-0.3942,-0.3942,-0.3895,-0.3887,-0.3883,-0.3894,-0.3796,-0.3781,-0.3858,-0.3851,-0.371,-0.3694,-0.368,-0.3637,-0.36,-0.3595,-0.3592,-0.3519,-0.352,-0.3521,0,0,0,0,0,0,-0.3894,-0.3897,-0.3942,-0.391,-0.3905,-0.3883,-0.388,-0.3841,-0.3792,-0.3855,-0.3849,-0.3855,-0.3699,-0.37,-0.3688,-0.3633,-0.3605,-0.3601,-0.3597,-0.3595,-0.352,-0.3521,0,0,0,0,0,0,-0.3895,-0.3897,-0.3909,-0.3906,-0.3901,-0.389,-0.3843,-0.3835,-0.384,-0.3857,-0.3832,-0.3828,-0.3703,-0.3692,-0.3694,-0.3644,-0.3636,-0.3605,-0.3602,-0.36,-0.3598,0,0,0,0,0,0,0,-0.3895,-0.3889,-0.395,-0.3902,-0.3898,-0.394,-0.3939,-0.3938,-0.3839,-0.3836,-0.3832,-0.3829,-0.3631,-0.3626,-0.3621,-0.3654,0,0,-0.3605,-0.3603,0,0,0,0,0,0,0,0,-0.3887,-0.3888,-0.395,-0.395,-0.3951,-0.394,-0.3939,-0.3939,-0.3838,-0.3836,-0.3833,-0.3831,-0.363,-0.3626,-0.3622,0,0,0,0,0,0,0,0,0,0,0,0,0,0,0,-0.395,-0.395,0,-0.394,-0.3939,-0.3939,-0.3838,-0.3836,-0.3834,-0.3832,-0.3629,-0.3625,-0.3622,0,0,0,0,0,0,0,0,0,0,0,0,0,0,0,0,0,0,0,0,0,0,0,0,0,0,0,0,0,0,0,0,0,0,0,0,0,0,0,0,0,0,0,0,0,0,0,0,0,0,0,0,0,0,0,0,0,0,0,0,0,0,0,0,0,0,0,0,0]}],[{"header":{"parameterUnit":"kt","parameterCategory":2,"dx":1,"dy":1,"la1":30.253999710083008,"la2":30.299108505249023,"lo1":-89.0895004272461,"lo2":-89.04439544677734,"nx":28,"ny":28,"refTime":"2022-10-05T21:00:00:Z","depth":"2","parameterNumber":3,"parameterNumberName":"V-component_of_CURRENTS"},"data":[0.001,-0.0103,-0.0174,-0.0226,-0.0276,-0.0253,-0.02,-0.0147,-0.0016,0.0117,0.0453,0.071,0.1179,0.1431,0.1472,0.161,0.1509,0.1509,0.1499,0.1615,0.1607,0.1812,0.1791,0,0,0,0,0,0.0008,-0.01,-0.02,-0.0283,-0.03,-0.0339,-0.0248,-0.0185,-0.006,0.0073,0.014,0.0621,0.0983,0.1166,0.1471,0.157,0.1538,0.1565,0.1676,0.1679,0.1678,0.1656,0.1672,0.167,0.1667,0.1665,0,0,0.0005,-0.0075,-0.0189,-0.0279,-0.0328,-0.0303,-0.028,-0.0205,-0.0098,0.0061,0.0123,0.0377,0.062,0.1026,0.1071,0.1225,0.1317,0.1632,0.1636,0.1637,0.1613,0.1471,0.1618,0.1616,0.1615,0.1614,0.1613,0,0.0025,-0.0045,-0.0123,-0.0235,-0.0291,-0.0303,-0.0298,-0.0235,-0.012,-0.0023,0.0125,0.0185,0.036,0.0706,0.0913,0.1089,0.144,0.1479,0.1343,0.1744,0.1602,0.1633,0.1614,0.1786,0.1785,0.1785,0.1785,0.1784,0.0085,0.0002,-0.0115,-0.0163,-0.0221,-0.0279,-0.0277,-0.0221,-0.0138,0.0022,0.0116,0.0204,0.0311,0.0629,0.091,0.1137,0.1194,0.1461,0.161,0.1367,0.1399,0.1386,0.1372,0.1778,0.1779,0.178,0.178,0,0.0127,0.0055,-0.0043,-0.0111,-0.0132,-0.0183,-0.0174,-0.0128,-0.0061,0.0061,0.0086,0.0293,0.0431,0.0622,0.0952,0.1152,0.1386,0.1419,0.1392,0.1437,0.1394,0.1377,0.1524,0.1522,0.1519,0.1518,0.1516,0,0.0187,0.0121,0.0027,-0.0029,-0.0082,-0.008,-0.0081,-0.0028,0.0081,0.0164,0.0279,0.0403,0.0666,0.0822,0.1002,0.1197,0.1288,0.141,0.1458,0.1549,0.1541,0.1554,0.1544,0.1638,0.1637,0.1637,0.1637,0,0.0268,0.0172,0.0073,0.005,0.0026,0.001,0.0017,0.012,0.0176,0.0294,0.0351,0.0549,0.0632,0.086,0.1009,0.1046,0.1302,0.1425,0.143,0.1418,0.1605,0.1602,0.1636,0.1636,0.1636,0.1636,0.1636,0,0.0313,0.024,0.0132,0.0099,0.0086,0.007,0.0131,0.0166,0.0306,0.0354,0.0464,0.0562,0.0719,0.0758,0.1039,0.0966,0.1076,0.1211,0.122,0.1188,0.1212,0.1345,0.1404,0.1262,0.126,0.1257,0.1255,0,0.0405,0.0281,0.0246,0.0186,0.0134,0.0181,0.0215,0.0276,0.0337,0.0418,0.056,0.0636,0.0663,0.0693,0.0829,0.1002,0.1087,0.0998,0.1273,0.1278,0.117,0.1199,0.1311,0.1364,0.1225,0.1228,0.123,0,0.0466,0.0337,0.0321,0.0281,0.0261,0.0272,0.0293,0.035,0.0382,0.0435,0.0506,0.0626,0.0665,0.0739,0.0825,0.0955,0.103,0.0979,0.0991,0.097,0.1271,0.1165,0.1174,0.1144,0.1148,0.1152,0.1206,0,0.0506,0.0423,0.0384,0.032,0.0331,0.0303,0.0357,0.0373,0.0383,0.0439,0.0527,0.064,0.0742,0.078,0.0815,0.0942,0.0918,0.1012,0.1051,0.1073,0.1083,0.1102,0.0916,0.0918,0.0919,0.0921,0,0,0.0602,0.0485,0.0461,0.0415,0.0412,0.0452,0.0425,0.0468,0.0513,0.0542,0.052,0.0691,0.0757,0.0894,0.0875,0.092,0.0962,0.0892,0.1044,0.1057,0.107,0.1082,0.1098,0.0924,0.0924,0.0925,0.0925,0,0.0608,0.0533,0.0456,0.0463,0.0457,0.0496,0.0476,0.0508,0.0522,0.0549,0.0614,0.0677,0.0752,0.0855,0.0916,0.0931,0.0991,0.093,0.0887,0.1053,0.1063,0.1073,0.1086,0.1099,0.093,0.0929,0.0929,0,0.0663,0.062,0.0575,0.0542,0.0556,0.0557,0.0592,0.058,0.0595,0.0668,0.067,0.073,0.084,0.089,0.0911,0.0928,0.1026,0.0979,0.0973,0.0977,0.1152,0.1163,0.1172,0.1053,0.1053,0.1052,0,0,0.068,0.0592,0.0612,0.0553,0.0549,0.0595,0.0606,0.0617,0.0653,0.0657,0.0699,0.0757,0.0832,0.0855,0.0922,0.0969,0.1043,0.0987,0.0982,0.0976,0.0977,0.1149,0.1159,0.1051,0.1051,0.1051,0,0,0.0714,0.066,0.0652,0.0571,0.0606,0.0673,0.0656,0.0676,0.07,0.0672,0.075,0.0764,0.0793,0.0853,0.0831,0.0927,0.0961,0.0967,0.0866,0.086,0.0855,0.0836,0.0885,0,0,0,0,0,0.0735,0.0665,0.0657,0.0647,0.0635,0.0675,0.0685,0.0704,0.0685,0.0676,0.0712,0.0743,0.0865,0.0847,0.0866,0.0865,0.1039,0.1041,0.1043,0.0927,0.0919,0.0914,0,0,0,0,0,0,0.0732,0.0715,0.0662,0.0711,0.0711,0.0676,0.0691,0.0698,0.0685,0.0681,0.0738,0.0748,0.0806,0.0842,0.0858,0.0856,0.0879,0.104,0.1042,0.1043,0.0924,0.0918,0.0913,0,0,0,0,0,0.0729,0.0716,0.0659,0.0717,0.0716,0.0744,0.0689,0.0694,0.0674,0.0762,0.0769,0.0677,0.0807,0.0821,0.0852,0.0846,0.0869,0.0875,0.1041,0.1042,0.1044,0.0921,0,0,0,0,0,0,0.0728,0.0753,0.0663,0.0669,0.0692,0.0746,0.0742,0.0691,0.0755,0.0762,0.0709,0.0707,0.0808,0.0819,0.083,0.0839,0.086,0.0866,0.087,0.1042,0.1043,0.1044,0,0,0,0,0,0,0.0761,0.0756,0.0666,0.0633,0.0636,0.0749,0.0744,0.081,0.0756,0.0699,0.0699,0.0707,0.0787,0.0818,0.0826,0.0932,0.0854,0.0859,0.0863,0.0865,0.1043,0.1044,0,0,0,0,0,0,0.0762,0.0759,0.0632,0.0634,0.0636,0.071,0.0812,0.0793,0.073,0.0697,0.0724,0.0721,0.0786,0.0795,0.0824,0.0926,0.093,0.0854,0.0857,0.086,0.0862,0,0,0,0,0,0,0,0.0763,0.0749,0.0622,0.0635,0.0637,0.0726,0.0728,0.073,0.0729,0.0727,0.0724,0.0722,0.0822,0.0828,0.0834,0.0921,0,0,0.0853,0.0856,0,0,0,0,0,0,0,0,0.0755,0.075,0.0623,0.0624,0.0625,0.0727,0.0728,0.073,0.0729,0.0727,0.0725,0.0723,0.0823,0.0828,0.0833,0,0,0,0,0,0,0,0,0,0,0,0,0,0,0,0.0623,0.0624,0,0.0727,0.0728,0.073,0.0728,0.0727,0.0725,0.0724,0.0825,0.0829,0.0833,0,0,0,0,0,0,0,0,0,0,0,0,0,0,0,0,0,0,0,0,0,0,0,0,0,0,0,0,0,0,0,0,0,0,0,0,0,0,0,0,0,0,0,0,0,0,0,0,0,0,0,0,0,0,0,0,0,0,0,0,0,0,0,0,0,0,0,0,0]}]],[[{"header":{"parameterUnit":"kt","parameterCategory":2,"dx":1,"dy":1,"la1":30.253999710083008,"la2":30.299108505249023,"lo1":-89.0895004272461,"lo2":-89.04439544677734,"nx":28,"ny":28,"refTime":"2022-10-05T21:00:00:Z","depth":"4","parameterNumber":2,"parameterNumberName":"U-component_of_CURRENTS"},"data":[-0.0982,-0.0949,-0.093,-0.074,-0.0646,-0.0567,-0.0605,-0.0691,-0.0639,-0.0745,-0.0696,-0.0794,-0.0736,-0.0787,-0.0728,-0.0741,-0.0969,-0.0843,-0.0842,-0.1273,-0.1299,-0.1321,-0.1374,0,0,0,0,0,-0.1046,-0.099,-0.0967,-0.0875,-0.0817,-0.0792,-0.0835,-0.0909,-0.1002,-0.0882,-0.0974,-0.0855,-0.083,-0.0843,-0.0773,-0.0897,-0.1057,-0.0826,-0.1193,-0.1289,-0.1317,-0.1359,0,0,0,0,0,0,-0.1117,-0.1086,-0.1072,-0.1032,-0.0996,-0.0929,-0.0993,-0.0967,-0.1,-0.1106,-0.1027,-0.1038,-0.11,-0.1056,-0.1006,-0.0996,-0.1038,-0.1136,-0.1171,-0.1199,-0.1202,-0.1099,-0.0762,0,0,0,0,0,-0.1141,-0.1168,-0.117,-0.1131,-0.1143,-0.1135,-0.1152,-0.1176,-0.1266,-0.1378,-0.1286,-0.1303,-0.1198,-0.1236,-0.1194,-0.1187,-0.1555,-0.1423,-0.1441,-0.1606,-0.1553,-0.1575,-0.1601,-0.1425,-0.1428,-0.143,-0.1432,0,-0.1186,-0.1199,-0.1251,-0.1242,-0.1273,-0.1319,-0.132,-0.1452,-0.1454,-0.1534,-0.1507,-0.1531,-0.1582,-0.1414,-0.1535,-0.1495,-0.1499,-0.1495,-0.1671,-0.16,-0.1611,-0.1631,-0.1649,-0.1455,-0.1453,-0.1451,-0.1449,0,-0.1221,-0.1252,-0.128,-0.1351,-0.1374,-0.1391,-0.1465,-0.1493,-0.1617,-0.1649,-0.1713,-0.185,-0.1802,-0.1883,-0.1892,-0.1905,-0.1835,-0.1744,-0.1946,-0.196,-0.1685,-0.1694,-0.1492,-0.1484,-0.1477,-0.1471,-0.1466,0,-0.127,-0.1306,-0.137,-0.138,-0.1395,-0.1458,-0.1496,-0.1581,-0.1689,-0.1708,-0.1906,-0.1923,-0.2134,-0.2122,-0.2142,-0.2015,-0.2116,-0.1957,-0.1946,-0.2237,-0.2243,-0.2168,-0.2168,-0.219,-0.2191,-0.2193,-0.2194,0,-0.1314,-0.1376,-0.1366,-0.1387,-0.1447,-0.1487,-0.1528,-0.1624,-0.1679,-0.1857,-0.1917,-0.2057,-0.2124,-0.2172,-0.2178,-0.2261,-0.2155,-0.2257,-0.2024,-0.2008,-0.2176,-0.2173,-0.2195,-0.2196,-0.2196,-0.2197,-0.2197,0,-0.1355,-0.1369,-0.1368,-0.1442,-0.1449,-0.1491,-0.1573,-0.163,-0.1769,-0.1864,-0.1988,-0.2086,-0.217,-0.2217,-0.2249,-0.2321,-0.2302,-0.23,-0.2296,-0.2042,-0.2062,-0.2167,-0.2226,-0.2227,-0.2228,-0.2229,-0.223,0,-0.1372,-0.1384,-0.1411,-0.1467,-0.1477,-0.1537,-0.1598,-0.1672,-0.1768,-0.1881,-0.1983,-0.21,-0.2163,-0.2243,-0.228,-0.2319,-0.2299,-0.235,-0.2277,-0.2269,-0.2087,-0.2092,-0.2432,-0.2247,-0.2245,-0.2244,-0.2242,0,-0.1395,-0.1441,-0.1467,-0.1485,-0.1516,-0.1541,-0.1616,-0.1676,-0.1736,-0.1872,-0.1955,-0.2096,-0.2146,-0.2186,-0.2266,-0.2287,-0.2311,-0.2338,-0.2336,-0.2249,-0.2325,-0.2134,-0.2105,-0.2434,-0.2433,-0.2433,-0.2254,0,-0.1417,-0.1466,-0.148,-0.1504,-0.1526,-0.1536,-0.1595,-0.1667,-0.1747,-0.1803,-0.1936,-0.2015,-0.2109,-0.2173,-0.2216,-0.2286,-0.228,-0.2318,-0.2257,-0.2323,-0.2234,-0.2226,-0.2289,-0.2287,-0.2285,-0.2283,0,0,-0.1433,-0.145,-0.1482,-0.1496,-0.1509,-0.1549,-0.1546,-0.1617,-0.1699,-0.174,-0.1779,-0.1973,-0.2013,-0.2116,-0.2159,-0.2206,-0.2209,-0.2216,-0.2302,-0.2305,-0.2307,-0.2226,-0.222,-0.2279,-0.2278,-0.2278,-0.2277,0,-0.1417,-0.1464,-0.1471,-0.1495,-0.1518,-0.1538,-0.155,-0.1597,-0.1637,-0.1745,-0.1779,-0.1849,-0.2014,-0.2028,-0.207,-0.2182,-0.2163,-0.2257,-0.2269,-0.2286,-0.2292,-0.2296,-0.2219,-0.2215,-0.2272,-0.2272,-0.2272,0,-0.1397,-0.1418,-0.1434,-0.1472,-0.1498,-0.1518,-0.1526,-0.1552,-0.1591,-0.1626,-0.1734,-0.1799,-0.1856,-0.1964,-0.2011,-0.1983,-0.2096,-0.2112,-0.2122,-0.2048,-0.2058,-0.2066,-0.2073,-0.1978,-0.1978,-0.1977,0,0,-0.1378,-0.1404,-0.1425,-0.1467,-0.1477,-0.1515,-0.1544,-0.1542,-0.1591,-0.1616,-0.1682,-0.1744,-0.182,-0.1866,-0.1915,-0.2027,-0.196,-0.208,-0.2094,-0.2106,-0.204,-0.2052,-0.206,-0.1975,-0.1975,-0.1975,0,0,-0.1362,-0.1385,-0.1396,-0.1442,-0.1464,-0.1496,-0.1528,-0.155,-0.1613,-0.1615,-0.1663,-0.1677,-0.1781,-0.1789,-0.1755,-0.1912,-0.1848,-0.1857,-0.1932,-0.195,-0.1963,-0.1868,-0.1726,0,0,0,0,0,-0.1346,-0.1381,-0.1391,-0.1402,-0.1468,-0.1498,-0.1509,-0.1527,-0.1546,-0.1558,-0.1619,-0.1613,-0.1764,-0.1736,-0.1757,-0.1835,-0.1946,-0.1951,-0.1956,-0.2077,-0.2095,-0.211,0,0,0,0,0,0,-0.135,-0.1361,-0.139,-0.1422,-0.1438,-0.1497,-0.1489,-0.1495,-0.1541,-0.154,-0.1606,-0.1614,-0.1625,-0.1726,-0.1745,-0.1819,-0.172,-0.1948,-0.1952,-0.1956,-0.2083,-0.2098,-0.211,0,0,0,0,0,-0.1354,-0.1363,-0.1457,-0.1423,-0.1437,-0.1472,-0.1486,-0.1492,-0.1533,-0.1571,-0.158,-0.1543,-0.1625,-0.1643,-0.1737,-0.1811,-0.1707,-0.1714,-0.1951,-0.1954,-0.1957,-0.209,0,0,0,0,0,0,-0.1356,-0.1377,-0.1461,-0.1467,-0.14,-0.1468,-0.1476,-0.1488,-0.1562,-0.1571,-0.1507,-0.1505,-0.1627,-0.164,-0.1653,-0.1808,-0.1696,-0.1704,-0.1708,-0.1954,-0.1956,-0.1959,0,0,0,0,0,0,-0.1372,-0.1382,-0.1464,-0.1433,-0.1436,-0.1465,-0.1472,-0.155,-0.1564,-0.1495,-0.1494,-0.1505,-0.1611,-0.1638,-0.1649,-0.1771,-0.1689,-0.1695,-0.17,-0.1703,-0.1956,-0.1958,0,0,0,0,0,0,-0.1377,-0.1386,-0.1431,-0.1434,-0.1436,-0.1509,-0.1537,-0.1606,-0.1525,-0.1492,-0.1519,-0.1517,-0.161,-0.162,-0.1646,-0.1763,-0.1769,-0.1689,-0.1693,-0.1697,-0.1699,0,0,0,0,0,0,0,-0.1381,-0.1313,-0.1422,-0.1434,-0.1436,-0.1525,-0.1527,-0.1529,-0.1525,-0.1522,-0.152,-0.1518,-0.1651,-0.1658,-0.1665,-0.1757,0,0,-0.1688,-0.1691,0,0,0,0,0,0,0,0,-0.1311,-0.1312,-0.1422,-0.1424,-0.1425,-0.1525,-0.1527,-0.1528,-0.1524,-0.1522,-0.1521,-0.1519,-0.1652,-0.1658,-0.1664,0,0,0,0,0,0,0,0,0,0,0,0,0,0,0,-0.1423,-0.1424,0,-0.1525,-0.1527,-0.1528,-0.1524,-0.1522,-0.1521,-0.1519,-0.1654,-0.1659,-0.1664,0,0,0,0,0,0,0,0,0,0,0,0,0,0,0,0,0,0,0,0,0,0,0,0,0,0,0,0,0,0,0,0,0,0,0,0,0,0,0,0,0,0,0,0,0,0,0,0,0,0,0,0,0,0,0,0,0,0,0,0,0,0,0,0,0,0,0,0,0]}],[{"header":{"parameterUnit":"kt","parameterCategory":2,"dx":1,"dy":1,"la1":30.253999710083008,"la2":30.299108505249023,"lo1":-89.0895004272461,"lo2":-89.04439544677734,"nx":28,"ny":28,"refTime":"2022-10-05T21:00:00:Z","depth":"4","parameterNumber":3,"parameterNumberName":"V-component_of_CURRENTS"},"data":[-0.083,-0.0894,-0.0917,-0.1009,-0.1076,-0.1178,-0.1211,-0.1218,-0.1091,-0.1032,-0.0763,-0.064,-0.0178,-0.0418,0.0273,0.0353,0.0402,0.0859,0.0866,0.088,0.0864,0.085,0.064,0,0,0,0,0,-0.0815,-0.0852,-0.0934,-0.1035,-0.1123,-0.118,-0.1242,-0.1274,-0.1261,-0.1074,-0.1051,-0.0715,-0.0241,-0.0076,0.0269,0.0245,0.0586,0.0651,0.0655,0.087,0.0852,0.0655,0,0,0,0,0,0,-0.0809,-0.0851,-0.0922,-0.1008,-0.111,-0.1179,-0.1236,-0.1193,-0.1209,-0.1144,-0.1037,-0.0755,-0.0599,-0.0145,0.0207,0.052,0.0579,0.0651,0.0646,0.0631,0.0448,0.0352,0.0694,0,0,0,0,0,-0.0784,-0.0833,-0.0895,-0.0991,-0.108,-0.1185,-0.1259,-0.1268,-0.1315,-0.1346,-0.1136,-0.0899,-0.0555,-0.0195,0.017,0.0509,0.0522,0.0701,0.0692,0.0557,0.0503,0.0544,0.0511,0.0784,0.0782,0.078,0.078,0,-0.0762,-0.0796,-0.0917,-0.0977,-0.1038,-0.1138,-0.1208,-0.1294,-0.132,-0.1304,-0.1271,-0.1063,-0.0937,-0.0296,-0.0062,0.0433,0.048,0.0654,0.0508,0.047,0.0523,0.0493,0.0465,0.0765,0.0766,0.0767,0.0769,0,-0.0747,-0.0799,-0.0883,-0.0981,-0.102,-0.1089,-0.1225,-0.1274,-0.1321,-0.133,-0.1332,-0.1236,-0.0928,-0.0674,-0.0268,-0.0075,0.0265,0.0408,0.0141,0.0202,0.0452,0.0429,0.0741,0.0747,0.0751,0.0755,0.0758,0,-0.0747,-0.0807,-0.0886,-0.0926,-0.1016,-0.1083,-0.118,-0.1228,-0.1271,-0.1285,-0.1267,-0.1213,-0.0998,-0.0764,-0.0512,-0.012,-0.0125,0.0097,0.0184,-0.0082,-0.01,-0.003,-0.0045,0.0072,0.0069,0.0066,0.0064,0,-0.0726,-0.0825,-0.0892,-0.0925,-0.1022,-0.1079,-0.1131,-0.118,-0.1227,-0.123,-0.1237,-0.1114,-0.1055,-0.0806,-0.055,-0.0572,-0.0175,-0.018,0.0078,0.0087,-0.0051,-0.0062,0.0061,0.006,0.0059,0.0058,0.0057,0,-0.0745,-0.0778,-0.0869,-0.0959,-0.0985,-0.1042,-0.1108,-0.1162,-0.1168,-0.1179,-0.1149,-0.1108,-0.1016,-0.0979,-0.0674,-0.0742,-0.0541,-0.0409,-0.0392,-0.0299,-0.0236,-0.0179,-0.0151,-0.0155,-0.0158,-0.0161,-0.0164,0,-0.07,-0.0772,-0.0816,-0.0903,-0.0937,-0.0971,-0.1026,-0.1056,-0.1069,-0.1075,-0.1045,-0.1053,-0.1005,-0.0992,-0.089,-0.0735,-0.0605,-0.0758,-0.0357,-0.0346,-0.0253,-0.0207,-0.0573,-0.021,-0.0204,-0.02,-0.0197,0,-0.0656,-0.0733,-0.0749,-0.0781,-0.0833,-0.0861,-0.0922,-0.0952,-0.0971,-0.0985,-0.0991,-0.1011,-0.0966,-0.0956,-0.0903,-0.0815,-0.0665,-0.0708,-0.07,-0.0527,-0.0333,-0.0267,-0.0233,-0.0587,-0.0585,-0.0582,-0.0229,0,-0.0651,-0.0685,-0.0711,-0.075,-0.078,-0.082,-0.0839,-0.0867,-0.087,-0.0865,-0.0885,-0.0874,-0.0858,-0.0865,-0.083,-0.0784,-0.0688,-0.0673,-0.0594,-0.0629,-0.0472,-0.0447,-0.0721,-0.072,-0.0719,-0.0718,0,0,-0.0593,-0.0624,-0.0623,-0.066,-0.0679,-0.0663,-0.071,-0.0725,-0.0737,-0.0742,-0.0736,-0.0737,-0.0729,-0.0723,-0.0755,-0.0753,-0.0626,-0.0697,-0.0646,-0.0639,-0.0631,-0.0482,-0.0459,-0.0716,-0.0716,-0.0716,-0.0715,0,-0.0582,-0.0577,-0.0609,-0.0627,-0.0642,-0.0642,-0.065,-0.0662,-0.067,-0.0706,-0.0665,-0.0673,-0.067,-0.0661,-0.0651,-0.0731,-0.0584,-0.0723,-0.0757,-0.0641,-0.0635,-0.0629,-0.0482,-0.0462,-0.0713,-0.0713,-0.0713,0,-0.0544,-0.0539,-0.0551,-0.0559,-0.0567,-0.0598,-0.0553,-0.0582,-0.0607,-0.0541,-0.0576,-0.056,-0.0538,-0.0566,-0.0574,-0.0542,-0.0513,-0.0579,-0.0586,-0.0588,-0.0465,-0.046,-0.0457,-0.0492,-0.0491,-0.049,0,0,-0.0531,-0.0548,-0.0541,-0.0553,-0.0562,-0.0552,-0.0555,-0.0553,-0.0549,-0.055,-0.0528,-0.0519,-0.0519,-0.0508,-0.0518,-0.0532,-0.0442,-0.0551,-0.0562,-0.057,-0.0577,-0.0458,-0.0456,-0.0487,-0.0487,-0.0487,0,0,-0.0524,-0.0521,-0.051,-0.052,-0.0529,-0.0523,-0.0538,-0.0519,-0.0524,-0.0525,-0.0473,-0.0466,-0.049,-0.047,-0.0434,-0.0489,-0.045,-0.0456,-0.0484,-0.0496,-0.0507,-0.0512,-0.0374,0,0,0,0,0,-0.0509,-0.0524,-0.0513,-0.0511,-0.0509,-0.053,-0.0531,-0.0512,-0.0486,-0.0509,-0.0489,-0.0445,-0.0457,-0.0424,-0.0418,-0.0439,-0.0447,-0.0454,-0.0461,-0.0503,-0.0516,-0.0528,0,0,0,0,0,0,-0.0508,-0.0508,-0.0512,-0.0505,-0.0503,-0.0529,-0.0488,-0.0485,-0.0484,-0.0481,-0.0453,-0.0444,-0.0418,-0.0423,-0.0419,-0.044,-0.0375,-0.045,-0.0456,-0.0461,-0.0507,-0.0519,-0.0528,0,0,0,0,0,-0.0508,-0.0507,-0.0507,-0.0505,-0.0504,-0.0482,-0.0488,-0.0485,-0.049,-0.0448,-0.0441,-0.0474,-0.0419,-0.0413,-0.042,-0.0443,-0.0378,-0.0376,-0.0453,-0.0458,-0.0463,-0.0513,0,0,0,0,0,0,-0.0507,-0.0516,-0.0507,-0.0505,-0.049,-0.0481,-0.048,-0.0484,-0.0458,-0.0451,-0.0466,-0.0464,-0.0421,-0.0415,-0.0411,-0.0447,-0.038,-0.0378,-0.0377,-0.0457,-0.0461,-0.0464,0,0,0,0,0,0,-0.0515,-0.0515,-0.0506,-0.0488,-0.0485,-0.0481,-0.0479,-0.0469,-0.0456,-0.0478,-0.0474,-0.0465,-0.0408,-0.0417,-0.0413,-0.0401,-0.0381,-0.038,-0.0379,-0.0378,-0.046,-0.0463,0,0,0,0,0,0,-0.0515,-0.0515,-0.0489,-0.0487,-0.0484,-0.0475,-0.047,-0.0461,-0.0468,-0.0479,-0.0464,-0.0462,-0.0409,-0.0406,-0.0416,-0.0405,-0.0402,-0.0381,-0.038,-0.038,-0.0379,0,0,0,0,0,0,0,-0.0515,-0.0518,-0.0506,-0.0485,-0.0483,-0.0493,-0.0494,-0.0494,-0.0467,-0.0466,-0.0464,-0.0462,-0.0389,-0.0387,-0.0386,-0.0409,0,0,-0.0381,-0.0381,0,0,0,0,0,0,0,0,-0.0517,-0.0518,-0.0506,-0.0505,-0.0504,-0.0493,-0.0494,-0.0494,-0.0467,-0.0466,-0.0464,-0.0463,-0.0389,-0.0387,-0.0386,0,0,0,0,0,0,0,0,0,0,0,0,0,0,0,-0.0506,-0.0505,0,-0.0493,-0.0494,-0.0494,-0.0467,-0.0466,-0.0465,-0.0464,-0.0388,-0.0387,-0.0386,0,0,0,0,0,0,0,0,0,0,0,0,0,0,0,0,0,0,0,0,0,0,0,0,0,0,0,0,0,0,0,0,0,0,0,0,0,0,0,0,0,0,0,0,0,0,0,0,0,0,0,0,0,0,0,0,0,0,0,0,0,0,0,0,0,0,0,0,0]}]]]